Quillayute, WA
on Wednesday, December 12, 2012

Wednesday
Previous Day Next Day
Daily Summary
 ActualAverageRecord
Temperature
Mean Temperature °F 40°F  
Max Temperature 49°F 46°F 60°F (1997)
Min Temperature 34°F 34°F 18°F (1972)
Degree Days
Heating Degree Days 23 25  
Month to date heating degree days 292  
Since 1 July heating degree days 2006  
Cooling Degree Days 0 0  
Month to date cooling degree days 0  
Year to date cooling degree days 19  
Moisture
Dew Point 39°F   
Average Humidity 95    
Maximum Humidity 100    
Minimum Humidity 76    
Precipitation
Precipitation 0.01 in 0.42 in 2.84 in (1973)
Month to date precipitation 5.33  
Year to date precipitation 91.88  
Wind
Wind Speed 2 mph   
Max Wind Speed 8 mph   
Max Gust Speed 10 mph   
Visibility 5 miles   
Events Rain   

Key: T is trace of precipitation, MM is missing value
Source: NWS Daily Summary
Time(PST)TemperatureDew PointHumidity Pressure Visibility Wind DirectionWind SpeedGust SpeedPrecipitationEvents Conditions
12:26 AM 41.0°F 41.0°F 100% 29.61 in 2.5 miles East 3.5 mph - N/A Rain Light Rain
12:34 AM 41.0°F 39.2°F 93% 29.61 in 5.0 miles Calm Calm - 0.01 in Rain Light Rain
12:53 AM 41.0°F 39.9°F 96% 29.62 in 5.0 miles ESE 4.6 mph - 0.01 in Rain Light Rain
1:05 AM 41.0°F 41.0°F 100% 29.62 in 5.0 miles Calm Calm - 0.00 in   Overcast
1:18 AM 41.0°F 41.0°F 100% 29.62 in 2.5 miles ESE 3.5 mph - 0.00 in Rain Light Rain
1:26 AM 41.0°F 41.0°F 100% 29.62 in 5.0 miles Calm Calm - 0.00 in   Overcast
1:53 AM 41.0°F 41.0°F 100% 29.63 in 6.0 miles East 4.6 mph - 0.00 in   Mostly Cloudy
2:02 AM 41.0°F 39.2°F 93% 29.62 in 6.0 miles East 4.6 mph - N/A   Mostly Cloudy
2:39 AM 41.0°F 41.0°F 100% 29.63 in 7.0 miles East 4.6 mph - N/A   Overcast
2:53 AM 41.0°F 39.9°F 96% 29.65 in 7.0 miles East 3.5 mph - N/A   Overcast
3:39 AM 39.2°F 39.2°F 100% 29.65 in 8.0 miles ENE 3.5 mph - N/A   Overcast
3:53 AM 39.2°F 39.2°F 100% 29.66 in 8.0 miles NE 3.5 mph - N/A   Mostly Cloudy
4:53 AM 39.9°F 39.0°F 97% 29.68 in 8.0 miles East 4.6 mph - N/A   Mostly Cloudy
5:41 AM 39.2°F 37.4°F 93% 29.68 in 8.0 miles East 4.6 mph - N/A   Scattered Clouds
5:53 AM 39.0°F 37.9°F 96% 29.69 in 8.0 miles Calm Calm - N/A   Clear
6:09 AM 37.4°F 37.4°F 100% 29.69 in 8.0 miles Calm Calm - N/A   Mostly Cloudy
6:53 AM 37.9°F 37.0°F 97% 29.71 in 8.0 miles Calm Calm - N/A   Overcast
7:34 AM 37.4°F 37.4°F 100% 29.72 in 7.0 miles ENE 5.8 mph - N/A   Scattered Clouds
7:53 AM 37.0°F 36.0°F 96% 29.73 in 8.0 miles Calm Calm - N/A   Partly Cloudy
8:53 AM 37.9°F 37.0°F 97% 29.76 in 6.0 miles NNE 3.5 mph - N/A   Overcast
9:14 AM 39.2°F 37.4°F 93% 29.77 in 6.0 miles East 3.5 mph - N/A   Overcast
9:53 AM 41.0°F 39.9°F 96% 29.80 in 6.0 miles Calm Calm - N/A   Overcast
10:53 AM 43.0°F 41.0°F 93% 29.82 in 6.0 miles East 3.5 mph - N/A   Overcast
11:15 AM 44.6°F 42.8°F 93% 29.81 in 7.0 miles Calm Calm - N/A   Scattered Clouds
11:41 AM 46.4°F 42.8°F 87% 29.81 in 7.0 miles East 3.5 mph - N/A   Partly Cloudy
11:53 AM 48.0°F 41.0°F 77% 29.82 in 7.0 miles NNE 4.6 mph - N/A   Scattered Clouds
12:53 PM 46.9°F 39.9°F 77% 29.83 in 7.0 miles ENE 5.8 mph - N/A   Scattered Clouds
1:01 PM 48.2°F 41.0°F 76% 29.82 in 7.0 miles ENE 6.9 mph - N/A   Mostly Cloudy
1:13 PM 46.4°F 41.0°F 81% 29.83 in 7.0 miles NE 5.8 mph - N/A   Scattered Clouds
1:53 PM 46.9°F 39.9°F 77% 29.84 in 7.0 miles East 6.9 mph - N/A   Clear
2:53 PM 46.9°F 39.9°F 77% 29.86 in 7.0 miles NNE 4.6 mph - N/A   Clear
3:46 PM 44.6°F 41.0°F 87% 29.89 in 7.0 miles Calm Calm - N/A   Mostly Cloudy
3:53 PM 44.1°F 42.1°F 93% 29.90 in 7.0 miles Calm Calm - N/A   Mostly Cloudy
4:53 PM 42.1°F 41.0°F 96% 29.92 in 8.0 miles Calm Calm - N/A   Overcast
5:19 PM 41.0°F 39.2°F 93% 29.92 in 2.5 miles Calm Calm - N/A   Mostly Cloudy
5:33 PM 39.2°F 39.2°F 100% 29.91 in 7.0 miles Calm Calm - N/A   Partly Cloudy
5:53 PM 39.0°F 37.9°F 96% 29.93 in 7.0 miles Calm Calm - N/A   Partly Cloudy
6:33 PM 35.6°F 35.6°F 100% 29.94 in 1.8 miles Calm Calm - N/A   Mostly Cloudy
6:42 PM 37.4°F 37.4°F 100% 29.94 in 3.0 miles Calm Calm - N/A   Overcast
6:51 PM 37.4°F 37.4°F 100% 29.94 in 1.8 miles Calm Calm - N/A   Overcast
6:53 PM 37.0°F 37.0°F 100% 29.95 in 1.5 miles Calm Calm - N/A   Overcast
7:01 PM 37.4°F 37.4°F 100% 29.94 in 3.0 miles Calm Calm - N/A   Mostly Cloudy
7:12 PM 37.4°F 37.4°F 100% 29.94 in 1.8 miles Calm Calm - N/A   Mostly Cloudy
7:17 PM 37.4°F 37.4°F 100% 29.94 in 0.8 miles Calm Calm - N/A   Scattered Clouds
7:53 PM 35.1°F 35.1°F 100% 29.96 in 0.8 miles Calm Calm - N/A   Mostly Cloudy
8:05 PM 35.6°F 35.6°F 100% 29.95 in 1.8 miles Calm Calm - N/A   Mostly Cloudy
8:21 PM 35.6°F 35.6°F 100% 29.96 in 0.8 miles Calm Calm - N/A   Overcast
8:30 PM 35.6°F 35.6°F 100% 29.96 in 1.5 miles Calm Calm - N/A   Overcast
8:33 PM 35.6°F 35.6°F 100% 29.96 in 3.0 miles Calm Calm - N/A   Overcast
8:43 PM 35.6°F 35.6°F 100% 29.97 in 6.0 miles Calm Calm - N/A   Overcast
8:53 PM 36.0°F 36.0°F 100% 29.98 in 6.0 miles Calm Calm - N/A   Overcast
9:04 PM 35.6°F 35.6°F 100% 29.98 in 2.5 miles Calm Calm - N/A   Overcast
9:25 PM 37.4°F 37.4°F 100% 29.99 in 5.0 miles Calm Calm - N/A   Overcast
9:33 PM 37.4°F 37.4°F 100% 29.99 in 5.0 miles Calm Calm - N/A   Overcast
9:53 PM 37.0°F 37.0°F 100% 30.00 in 6.0 miles Calm Calm - N/A   Overcast
10:53 PM 39.0°F 37.9°F 96% 30.01 in 6.0 miles East 3.5 mph - N/A   Overcast
11:48 PM 39.2°F 37.4°F 93% 30.00 in 5.0 miles Calm Calm - N/A   Overcast
11:53 PM 39.0°F 37.9°F 96% 30.01 in 5.0 miles Calm Calm - N/A   Overcast
Moon Phase
Dec. 12 Dec. 13 Dec. 20 Dec. 28 Jan. 04
Sunrise:07:59 AM (PST) Moon Rise:07:08 AM (PST)12/12
Sunset:04:25 PM (PST) Moon Set:04:09 PM (PST)12/12

Copyright © 2014 The Weather Underground, Inc.